Location: Casa Rossa
(45.2389°N, 12.2056°E)
Time: 23:50:14
(UTC+00:00)

Tsikada Rocket - Pass Details

Date: 14 July 2020
Orbit: 959 x 1008 km, 82.9° (Epoch: 14 August)

Event Time Altitude Azimuth Distance (km) Brightness Sun altitude
Rises 01:31:05 0° 349° (N) 3,746 7.8 -16.5°
Reaches altitude 10° 01:33:38 10° 347° (NNW) 2,794 7.0 -16.3°
Maximum altitude 01:40:01 70° 266° (W) 1,072 4.1 -15.6°
Enters shadow 01:45:07 17° 186° (S) 2,321 5.5 -15.1°
